Regional Weather Roundup
Issued by NWS Bismarck, ND

Home | Current Version | Previous Version | Text Only | Print | Product List | Glossary On
Versions: 1 2 3 4 5 6 7 8 9 10 11 12 13 14 15 16 17 18 19 20 21 22 23 24 25 26 27 28 29 30 31 32 33 34 35 36 37 38 39 40 41 42 43 44 45 46 47 48 49 50
000
ASUS43 KBIS 260820
RWRBIS

NWR BROADCAST TEXT
NATIONAL WEATHER SERVICE BISMARCK ND
300 AM CDT SUN OCT 26 2014

NOTE: "FAIR" INDICATES FEW OR NO CLOUDS BELOW 12,000 FEET WITH NO
SIGNIFICANT WEATHER AND/OR OBSTRUCTIONS TO VISIBILITY.


CITY           SKY/WX    TMP DP  RH WIND       PRES   REMARKS
WILLISTON      CLOUDY    53  29  39 SE7       29.64F
MINOT          PTCLDY    43  31  62 SE8       29.77F
MINOT AFB      PTCLDY    39  32  75 SE8       29.77F
BISMARCK       PTCLDY    47  31  53 SE8       29.82F
DICKINSON      CLOUDY    50  31  48 S24       29.64F
GARRISON         N/A     49  32  52 SE13      29.77F
HETTINGER ARPT MOCLDY    49  31  49 SE16      29.70F
JAMESTOWN      CLEAR     36  29  75 SE7       29.92F
BEACH            N/A     48  32  53 S20G26    29.60F
CARRINGTON     FAIR      36  28  75 SE7       29.90F
CROSBY         FAIR      48  30  49 SE20G25   29.64F
HARVEY         FAIR      37  30  75 SE8       29.86F
HAZEN          FAIR      46  30  53 SE10      29.76F
LINTON         FAIR      45  32  61 SE13G18   29.83F
MANDAN         FAIR      46  32  57 SE13      29.81F
OAKES            N/A     36  32  87 SE8       29.93S
RUGBY          FAIR      45  28  53 SE13G18   29.85F
STANLEY        FAIR      46  32  57 SE18G25   29.70F
TIOGA          FAIR      48  30  49 SE14G28   29.70F
$$

CITY           SKY/WX    TMP DP  RH WIND       PRES   REMARKS
GRAND FORKS    CLEAR     30  24  78 S5        29.95F
GRAND FORKS AF CLEAR     30  26  83 S1        29.95F
DEVILS LAKE    PTCLDY    43  28  56 SE12      29.88F
FARGO          CLEAR     37  21  52 SE7       29.97F
CANDO          FAIR      32  28  86 SE9       29.88F
CAVALIER       FAIR      36  27  69 CALM      29.93F
GRAFTON        FAIR      30  23  74 CALM      29.94F
GWINNER        SUNNY     41  32  70 SE8       29.95S
LANGDON        FAIR      32  19  59 SE7       29.92F
ROLLA          FAIR      39  28  65 S8        29.88F
WALHALLA       FAIR      32  25  74 CALM      29.94S
$$

CITY           SKY/WX    TMP DP  RH WIND       PRES   REMARKS
ABERDEEN       CLEAR     39  31  72 SE9       29.92F
MOBRIDGE       CLEAR     52  33  48 SE17      29.81F
BUFFALO          N/A     49  33  54 S9        29.61F
RAPID CITY     MOCLDY    49  38  65 E8        29.73F
GLASGOW        PTCLDY    47  32  56 E16       29.53F
SIDNEY         CLOUDY    46  32  57 CALM      29.59F
WOLF POINT     CLOUDY    46  33  60 E8        29.56F
GLENDIVE       CLOUDY    50  34  53 S9        29.58F
MILES CITY     CLOUDY    53  37  54 S8        29.57F
BAKER          CLOUDY    50  32  50 SE17G25   29.62F
$$

CITY           SKY/WX    TMP DP  RH WIND       PRES   REMARKS
BILLINGS       PTCLDY    54  35  48 W17G28    29.63S
GREAT FALLS    PTCLDY    54  38  54 SW15      29.59F
REGINA         PTCLDY    46  30  53 E22G28    29.64F
ESTEVAN        CLOUDY    43  32  65 E14       29.68F
$$




USA.gov is the U.S. government's official web portal to all federal, state and local government web resources and services.